,,Stat5,,Stat1,,Stat2,,Stat3,,Stat4,,Wind1,,Wind1,
time,status,PA1M_AVG,status,PR1M_SUM,status,RH1M_AVG,status,SR1M_AVG,status,TA1M_AVG,status,W1dAve1m,status,W1sAve1m,
2001-03-31, 00:00:00,VALID,917.274,VALID,0,VALID,97.7292,VALID,-0.0679233,VALID,19.8091,VALID,171,VALID,0,
2001-03-31, 00:01:00,VALID,917.288,VALID,0,VALID,97.8856,VALID,-0.0339617,VALID,19.7959,VALID,166,VALID,0,
2001-03-31, 00:02:00,VALID,917.3,VALID,0,VALID,97.9263,VALID,-0.0849042,VALID,19.7999,VALID,165,VALID,0,
2001-03-31, 00:03:00,VALID,917.306,VALID,0,VALID,97.9987,VALID,-0.0679233,VALID,19.8091,VALID,164,VALID,0.0222039,
2001-03-31, 00:04:00,VALID,917.314,VALID,0,VALID,97.6986,VALID,-0.0509425,VALID,19.7576,VALID,157,VALID,0.271205,
2001-03-31, 00:05:00,VALID,917.342,VALID,0,VALID,97.3769,VALID,-0.0679233,VALID,19.6709,VALID,149,VALID,0,
2001-03-31, 00:06:01,VALID,917.338,VALID,0,VALID,97.6096,VALID,-0.0509425,VALID,19.6475,VALID,142,VALID,0.457442,
2001-03-31, 00:07:00,VALID,917.346,VALID,0,VALID,97.9492,VALID,-0.0679233,VALID,19.6707,VALID,151,VALID,0.729018,
2001-03-31, 00:08:00,VALID,917.35,VALID,0,VALID,98.3306,VALID,-0.0339617,VALID,19.7544,VALID,161,VALID,0.695095,
2001-03-31, 00:09:01,VALID,917.352,VALID,0,VALID,98.3955,VALID,-0.0169808,VALID,19.8061,VALID,167,VALID,0.571368,
2001-03-31, 00:10:00,VALID,917.374,VALID,0,VALID,98.3408,VALID,-0.0169808,VALID,19.8026,VALID,164,VALID,0.599029,
2001-03-31, 00:11:01,VALID,917.384,VALID,0,VALID,98.2022,VALID,0,VALID,19.7348,VALID,166,VALID,0.732077,
2001-03-31, 00:12:00,VALID,917.401,VALID,0,VALID,98.1908,VALID,-0.0169808,VALID,19.6895,VALID,152,VALID,0.464021,
2001-03-31, 00:13:01,VALID,917.401,VALID,0,VALID,98.159,VALID,0,VALID,19.6572,VALID,156,VALID,0.581163,
2001-03-31, 00:14:00,VALID,917.42,VALID,0,VALID,98.2505,VALID,-0.0339617,VALID,19.6309,VALID,162,VALID,0.337546,
2001-03-31, 00:15:01,VALID,917.44,VALID,0,VALID,98.2327,VALID,0,VALID,19.5993,VALID,136,VALID,0.429253,
2001-03-31, 00:16:00,VALID,917.444,VALID,0,VALID,98.1895,VALID,-0.0339617,VALID,19.534,VALID,108,VALID,0.372179,
2001-03-31, 00:17:00,VALID,917.456,VALID,0,VALID,98.2582,VALID,0,VALID,19.5246,VALID,106,VALID,0.516085,
2001-03-31, 00:18:01,VALID,917.448,VALID,0,VALID,98.4349,VALID,-0.0169808,VALID,19.5504,VALID,118,VALID,0.854307,
2001-03-31, 00:19:00,VALID,917.449,VALID,0,VALID,98.482,VALID,-0.0509425,VALID,19.5633,VALID,107,VALID,1.01629,
2001-03-31, 00:20:00,VALID,917.43,VALID,0,VALID,98.4222,VALID,0,VALID,19.5345,VALID,102,VALID,0.937737,
2001-03-31, 00:21:00,VALID,917.425,VALID,0,VALID,98.3904,VALID,-0.0339617,VALID,19.5151,VALID,100,VALID,0.965583,
2001-03-31, 00:22:01,VALID,917.419,VALID,0,VALID,98.3713,VALID,0.0509425,VALID,19.5174,VALID,94,VALID,0.559755,
2001-03-31, 00:23:00,VALID,917.433,VALID,0,VALID,98.351,VALID,0.0509425,VALID,19.533,VALID,91,VALID,0.77036,
2001-03-31, 00:24:01,VALID,917.447,VALID,0,VALID,98.3141,VALID,0.0849042,VALID,19.5658,VALID,98,VALID,0.742405,
2001-03-31, 00:25:00,VALID,917.465,VALID,0,VALID,98.2429,VALID,0.0679233,VALID,19.575,VALID,90,VALID,0.600043,
2001-03-31, 00:26:00,VALID,917.468,VALID,0,VALID,98.2022,VALID,0.0169808,VALID,19.6038,VALID,85,VALID,0.483915,
2001-03-31, 00:27:01,VALID,917.466,VALID,0,VALID,98.1234,VALID,0.0339617,VALID,19.6369,VALID,85,VALID,0.626056,
2001-03-31, 00:28:00,VALID,917.472,VALID,0,VALID,98.0344,VALID,0.0169808,VALID,19.6331,VALID,89,VALID,0.778125,
2001-03-31, 00:29:01,VALID,917.469,VALID,0,VALID,97.9682,VALID,0.0679233,VALID,19.6262,VALID,88,VALID,0.951231,
2001-03-31, 00:30:00,VALID,917.488,VALID,0,VALID,97.9937,VALID,0.0339617,VALID,19.6687,VALID,81,VALID,0.938133,
2001-03-31, 00:31:01,VALID,917.489,VALID,0,VALID,97.8818,VALID,0.0509425,VALID,19.6754,VALID,90,VALID,0.725084,
2001-03-31, 00:32:00,VALID,917.49,VALID,0,VALID,97.9136,VALID,0.0509425,VALID,19.7074,VALID,86,VALID,1.39489,
2001-03-31, 00:33:01,VALID,917.471,VALID,0,VALID,97.9021,VALID,0.0339617,VALID,19.7459,VALID,90,VALID,1.32509,
2001-03-31, 00:34:01,VALID,917.477,VALID,0,VALID,97.7838,VALID,0.0849042,VALID,19.782,VALID,88,VALID,1.60699,
2001-03-31, 00:35:00,VALID,917.475,VALID,0,VALID,97.6224,VALID,0.0169808,VALID,19.7882,VALID,80,VALID,1.11489,
2001-03-31, 00:36:01,VALID,917.465,VALID,0,VALID,97.4876,VALID,0.0169808,VALID,19.8078,VALID,73,VALID,0.969383,
2001-03-31, 00:37:00,VALID,917.468,VALID,0,VALID,97.3057,VALID,0.0339617,VALID,19.8242,VALID,77,VALID,1.12545,
2001-03-31, 00:38:01,VALID,917.464,VALID,0,VALID,97.1875,VALID,0.0339617,VALID,19.8302,VALID,76,VALID,0.971117,
2001-03-31, 00:39:00,VALID,917.438,VALID,0,VALID,97.0578,VALID,0.0339617,VALID,19.8438,VALID,60,VALID,1.10093,
2001-03-31, 00:40:00,VALID,917.007,VALID,0,VALID,96.9916,VALID,0.0169808,VALID,19.8304,VALID,68,VALID,1,
2001-03-31, 00:41:01,VALID,917.425,VALID,0,VALID,96.9268,VALID,0.0509425,VALID,19.8404,VALID,45,VALID,1.10298,
2001-03-31, 00:42:01,VALID,917.418,VALID,0,VALID,96.8518,VALID,0.0339617,VALID,19.8632,VALID,46,VALID,0.73546,
2001-03-31, 00:43:00,VALID,917.408,VALID,0,VALID,96.8034,VALID,0.0679233,VALID,19.8756,VALID,60,VALID,0.432292,
2001-03-31, 00:44:00,VALID,917.393,VALID,0,VALID,96.628,VALID,0.0679233,VALID,19.8754,VALID,45,VALID,0.756434,
2001-03-31, 00:45:01,VALID,917.378,VALID,0,VALID,96.6203,VALID,0.0509425,VALID,19.8985,VALID,75,VALID,0.250422,
2001-03-31, 00:46:00,VALID,917.337,VALID,0,VALID,96.6152,VALID,0.0509425,VALID,19.8886,VALID,66,VALID,0.737054,
2001-03-31, 00:47:00,VALID,917.311,VALID,0,VALID,96.4715,VALID,0.0339617,VALID,19.8888,VALID,86,VALID,0.776989,
2001-03-31, 00:48:00,VALID,917.294,VALID,0,VALID,96.3876,VALID,0.0679233,VALID,19.8886,VALID,78,VALID,0.911318,
2001-03-31, 00:49:00,VALID,917.273,VALID,0,VALID,96.2821,VALID,0.0169808,VALID,19.8888,VALID,84,VALID,0.794341,
2001-03-31, 00:50:00,VALID,917.271,VALID,0,VALID,96.1626,VALID,0.0509425,VALID,19.8955,VALID,78,VALID,0.948627,
2001-03-31, 00:51:01,VALID,917.267,VALID,0,VALID,96.0341,VALID,0.0339617,VALID,19.8985,VALID,76,VALID,1.06836,
2001-03-31, 00:52:00,VALID,917.269,VALID,0,VALID,95.865,VALID,-0.0169808,VALID,19.903,VALID,74,VALID,1.18424,
2001-03-31, 00:53:00,VALID,917.271,VALID,0,VALID,95.6832,VALID,-0.0509425,VALID,19.9226,VALID,70,VALID,0.860064,
2001-03-31, 00:54:01,VALID,917.285,VALID,0,VALID,95.5484,VALID,-0.0339617,VALID,19.9388,VALID,84,VALID,0.754223,
2001-03-31, 00:55:00,VALID,917.283,VALID,0,VALID,95.4911,VALID,-0.0509425,VALID,19.9383,VALID,77,VALID,1.15848,
2001-03-31, 00:56:00,VALID,917.264,VALID,0,VALID,95.3258,VALID,-0.0679233,VALID,19.9651,VALID,88,VALID,1.12003,
2001-03-31, 00:57:00,VALID,917.265,VALID,0,VALID,95.2012,VALID,-0.0339617,VALID,19.9582,VALID,84,VALID,0.910684,
2001-03-31, 00:58:00,VALID,917.242,VALID,0,VALID,95.1147,VALID,-0.0509425,VALID,19.9547,VALID,87,VALID,0.872677,
2001-03-31, 00:59:00,VALID,917.214,VALID,0,VALID,95.0779,VALID,-0.0509425,VALID,19.9711,VALID,89,VALID,0.709044,
2001-03-31, 01:00:01,VALID,917.199,VALID,0,VALID,95.0321,VALID,-0.0679233,VALID,19.9611,VALID,88,VALID,0.968967,
2001-03-31, 01:01:00,VALID,917.18,VALID,0,VALID,95.1491,VALID,-0.0339617,VALID,19.9415,VALID,85,VALID,0.977648,
2001-03-31, 01:02:00,VALID,917.188,VALID,0,VALID,95.1885,VALID,-0.101885,VALID,19.9393,VALID,85,VALID,1.20175,
2001-03-31, 01:03:01,VALID,917.153,VALID,0,VALID,95.0969,VALID,-0.0679233,VALID,19.9455,VALID,92,VALID,1.30004,
2001-03-31, 01:04:00,VALID,917.145,VALID,0,VALID,95.0117,VALID,-0.0679233,VALID,19.9644,VALID,58,VALID,0.770089,
2001-03-31, 01:05:01,VALID,917.143,VALID,0,VALID,94.985,VALID,-0.0509425,VALID,19.9708,VALID,78,VALID,0.414299,
2001-03-31, 01:06:00,VALID,917.137,VALID,0,VALID,94.9774,VALID,-0.0339617,VALID,19.9703,VALID,87,VALID,0.286318,
2001-03-31, 01:07:00,VALID,917.112,VALID,0,VALID,94.9278,VALID,0.0679233,VALID,19.976,VALID,68,VALID,0.758235,
2001-03-31, 01:08:00,VALID,917.102,VALID,0,VALID,94.8922,VALID,0.0339617,VALID,19.9629,VALID,70,VALID,0.578835,
2001-03-31, 01:09:01,VALID,917.104,VALID,0,VALID,94.9914,VALID,0.0339617,VALID,19.9467,VALID,34,VALID,0.189236,
2001-03-31, 01:10:00,VALID,917.093,VALID,0,VALID,95.2267,VALID,0.0509425,VALID,19.9435,VALID,274,VALID,0.0588108,
2001-03-31, 01:11:00,VALID,917.091,VALID,0,VALID,95.289,VALID,0.0169808,VALID,19.9499,VALID,117,VALID,0.34375,
2001-03-31, 01:12:01,VALID,917.084,VALID,0,VALID,95.2788,VALID,0.0509425,VALID,19.9534,VALID,103,VALID,0.029772,
2001-03-31, 01:13:00,VALID,917.067,VALID,0,VALID,95.2241,VALID,0.0509425,VALID,19.9368,VALID,97,VALID,0.117188,
2001-03-31, 01:14:00,VALID,917.046,VALID,0,VALID,95.0117,VALID,0.0339617,VALID,19.9211,VALID,79,VALID,0.466856,
2001-03-31, 01:15:00,VALID,917.024,VALID,0,VALID,94.6214,VALID,0.0339617,VALID,19.9179,VALID,85,VALID,0.576858,
2001-03-31, 01:16:00,VALID,916.999,VALID,0,VALID,94.4433,VALID,0.0509425,VALID,19.9241,VALID,96,VALID,0.199324,
2001-03-31, 01:17:01,VALID,916.969,VALID,0,VALID,94.2564,VALID,0.0339617,VALID,19.9174,VALID,73,VALID,0.295928,
2001-03-31, 01:18:01,VALID,916.953,VALID,0,VALID,93.847,VALID,0.0339617,VALID,19.937,VALID,74,VALID,0.439887,
2001-03-31, 01:19:00,VALID,916.931,VALID,0,VALID,93.8609,VALID,0.0169808,VALID,19.94,VALID,67,VALID,0.423611,
2001-03-31, 01:20:00,VALID,916.907,VALID,0,VALID,93.7033,VALID,0.0509425,VALID,19.9306,VALID,93,VALID,0.943704,
2001-03-31, 01:21:01,VALID,916.869,VALID,0,VALID,93.4629,VALID,0.0509425,VALID,19.934,VALID,84,VALID,0.93391,
2001-03-31, 01:22:00,VALID,916.882,VALID,0,VALID,93.4973,VALID,0.0169808,VALID,19.9189,VALID,83,VALID,0.916741,
2001-03-31, 01:23:00,VALID,916.876,VALID,0,VALID,93.4782,VALID,-0.0169808,VALID,19.9097,VALID,87,VALID,0.832386,
2001-03-31, 01:24:00,VALID,916.896,VALID,0,VALID,93.6346,VALID,-0.0339617,VALID,19.9159,VALID,86,VALID,0.994299,
2001-03-31, 01:25:00,VALID,916.896,VALID,0,VALID,93.702,VALID,-0.0509425,VALID,19.8702,VALID,87,VALID,0.831926,
2001-03-31, 01:26:01,VALID,916.899,VALID,0,VALID,93.8876,VALID,-0.0339617,VALID,19.865,VALID,79,VALID,0.697206,
2001-03-31, 01:27:01,VALID,916.893,VALID,0,VALID,93.9105,VALID,-0.0509425,VALID,19.8356,VALID,84,VALID,0.61263,
2001-03-31, 01:28:00,VALID,916.889,VALID,0,VALID,93.9779,VALID,-0.0169808,VALID,19.7932,VALID,81,VALID,0.49566,
2001-03-31, 01:29:00,VALID,916.875,VALID,0,VALID,94.1394,VALID,-0.0339617,VALID,19.777,VALID,79,VALID,0.216222,
2001-03-31, 01:30:01,VALID,916.859,VALID,0,VALID,94.0797,VALID,0,VALID,19.7735,VALID,81,VALID,0.0772804,
2001-03-31, 01:31:00,VALID,916.854,VALID,0,VALID,94.1788,VALID,-0.0339617,VALID,19.7802,VALID,84,VALID,0.0921875,
2001-03-31, 01:32:00,VALID,916.855,VALID,0,VALID,94.0809,VALID,-0.0339617,VALID,19.7708,VALID,74,VALID,0.665246,
2001-03-31, 01:33:00,VALID,916.852,VALID,0,VALID,94.0568,VALID,-0.0339617,VALID,19.7415,VALID,85,VALID,0.684333,
2001-03-31, 01:34:01,VALID,916.86,VALID,0,VALID,94.1089,VALID,0,VALID,19.7288,VALID,80,VALID,0.600296,
2001-03-31, 01:35:00,VALID,916.853,VALID,0,VALID,94.1229,VALID,-0.0339617,VALID,19.7059,VALID,89,VALID,0.889441,
2001-03-31, 01:36:01,VALID,916.827,VALID,0,VALID,93.983,VALID,-0.0509425,VALID,19.7,VALID,93,VALID,0.986328,
2001-03-31, 01:37:01,VALID,916.821,VALID,0,VALID,93.6944,VALID,0.0509425,VALID,19.6987,VALID,83,VALID,1.22917,
2001-03-31, 01:38:00,VALID,916.81,VALID,0,VALID,93.2048,VALID,0.101885,VALID,19.6786,VALID,76,VALID,0.988741,
2001-03-31, 01:39:01,VALID,916.828,VALID,0,VALID,92.9047,VALID,0.0679233,VALID,19.6915,VALID,78,VALID,1.25042,
2001-03-31, 01:40:01,VALID,916.831,VALID,0,VALID,92.7686,VALID,0.101885,VALID,19.7236,VALID,72,VALID,1.49464,
2001-03-31, 01:41:01,VALID,916.826,VALID,0,VALID,92.4202,VALID,0.0679233,VALID,19.7464,VALID,79,VALID,1.16146,
2001-03-31, 01:42:00,VALID,916.828,VALID,0,VALID,92.232,VALID,0.0679233,VALID,19.7631,VALID,76,VALID,1.05532,
2001-03-31, 01:43:01,VALID,916.837,VALID,0,VALID,91.9891,VALID,0.0679233,VALID,19.7892,VALID,72,VALID,1.11529,
2001-03-31, 01:44:01,VALID,916.842,VALID,0,VALID,92.0133,VALID,0.0849042,VALID,19.8046,VALID,84,VALID,0.717093,
2001-03-31, 01:45:01,VALID,916.839,VALID,0,VALID,91.8874,VALID,0.101885,VALID,19.7884,VALID,84,VALID,1.2717,
2001-03-31, 01:46:01,VALID,916.841,VALID,0,VALID,91.773,VALID,0.0509425,VALID,19.7887,VALID,75,VALID,1.05534,
2001-03-31, 01:47:01,VALID,916.839,VALID,0,VALID,91.6674,VALID,0.0679233,VALID,19.7956,VALID,76,VALID,1.4483,
2001-03-31, 01:48:01,VALID,916.839,VALID,0,VALID,91.8811,VALID,0.0339617,VALID,19.8212,VALID,87,VALID,1.18856,
2001-03-31, 01:49:01,VALID,916.847,VALID,0,VALID,92.1417,VALID,-0.0169808,VALID,19.8061,VALID,86,VALID,1.00357,
2001-03-31, 01:50:01,VALID,916.866,VALID,0,VALID,91.806,VALID,-0.0339617,VALID,19.7969,VALID,90,VALID,1.29759,
2001-03-31, 01:51:01,VALID,916.873,VALID,0,VALID,92.0387,VALID,-0.0339617,VALID,19.8033,VALID,86,VALID,1.11655,
2001-03-31, 01:52:01,VALID,916.858,VALID,0,VALID,91.8861,VALID,-0.0339617,VALID,19.8096,VALID,77,VALID,1.19088,
2001-03-31, 01:53:01,VALID,916.86,VALID,0,VALID,92.04,VALID,0,VALID,19.819,VALID,77,VALID,1.24834,
2001-03-31, 01:54:01,VALID,916.842,VALID,0,VALID,92.2218,VALID,-0.0169808,VALID,19.8061,VALID,78,VALID,0.947049,
2001-03-31, 01:55:01,VALID,916.843,VALID,0,VALID,91.7857,VALID,-0.0509425,VALID,19.7864,VALID,72,VALID,0.980469,
2001-03-31, 01:56:01,VALID,916.845,VALID,0,VALID,91.0342,VALID,0,VALID,19.8225,VALID,71,VALID,0.908318,
2001-03-31, 01:57:01,VALID,916.836,VALID,0,VALID,91.1206,VALID,-0.0509425,VALID,19.8351,VALID,77,VALID,0.466427,
2001-03-31, 01:58:01,VALID,916.817,VALID,0,VALID,90.8193,VALID,-0.0339617,VALID,19.8356,VALID,76,VALID,0.329464,
2001-03-31, 01:59:01,VALID,916.789,VALID,0,VALID,91.2821,VALID,-0.0509425,VALID,19.8322,VALID,84,VALID,0.204072,
2001-03-31, 02:00:01,VALID,916.766,VALID,0,VALID,91.5365,VALID,-0.0169808,VALID,19.8255,VALID,98,VALID,0.149916,
2001-03-31, 02:01:01,VALID,916.74,VALID,0,VALID,91.4856,VALID,-0.0679233,VALID,19.8031,VALID,87,VALID,0.313767,
2001-03-31, 02:02:01,VALID,916.704,VALID,0,VALID,90.963,VALID,-0.0339617,VALID,19.7874,VALID,48,VALID,0.0606061,
2001-03-31, 02:03:01,VALID,916.669,VALID,0,VALID,92.3388,VALID,-0.0169808,VALID,19.7874,VALID,12,VALID,0.273655,
2001-03-31, 02:04:01,VALID,916.637,VALID,0,VALID,92.6313,VALID,-0.0509425,VALID,19.7773,VALID,41,VALID,0.0169271,
2001-03-31, 02:05:01,VALID,916.631,VALID,0,VALID,92.7737,VALID,-0.0509425,VALID,19.7576,VALID,60,VALID,0,
2001-03-31, 02:06:01,VALID,916.608,VALID,0,VALID,92.7101,VALID,-0.0509425,VALID,19.7258,VALID,64,VALID,0.0793919,
2001-03-31, 02:07:00,VALID,916.598,VALID,0,VALID,92.1697,VALID,-0.0339617,VALID,19.6828,VALID,93,VALID,0.252009,
2001-03-31, 02:08:00,VALID,916.605,VALID,0,VALID,92.171,VALID,0,VALID,19.6473,VALID,97,VALID,0.0892519,
2001-03-31, 02:09:00,VALID,916.598,VALID,0,VALID,92.4075,VALID,0.0169808,VALID,19.6244,VALID,97,VALID,0.517948,
2001-03-31, 02:10:00,VALID,916.6,VALID,0,VALID,92.5614,VALID,0,VALID,19.5631,VALID,94,VALID,0.409206,
2001-03-31, 02:11:00,VALID,916.622,VALID,0,VALID,92.6936,VALID,0,VALID,19.5213,VALID,94,VALID,0.496922,
2001-03-31, 02:12:00,VALID,916.629,VALID,0,VALID,92.7648,VALID,0,VALID,19.46,VALID,90,VALID,1.02886,
2001-03-31, 02:13:00,VALID,916.627,VALID,0,VALID,92.1723,VALID,0,VALID,19.4406,VALID,84,VALID,0.838108,
2001-03-31, 02:14:00,VALID,916.619,VALID,0,VALID,92.5029,VALID,0,VALID,19.4473,VALID,80,VALID,0.746783,
2001-03-31, 02:15:00,VALID,916.605,VALID,0,VALID,92.204,VALID,0,VALID,19.4339,VALID,76,VALID,0.805532,
2001-03-31, 02:16:00,VALID,916.602,VALID,0,VALID,92.213,VALID,0,VALID,19.4498,VALID,85,VALID,0.839286,
2001-03-31, 02:17:00,VALID,916.577,VALID,0,VALID,92.04,VALID,0,VALID,19.4634,VALID,71,VALID,0.943419,
2001-03-31, 02:18:00,VALID,916.574,VALID,0,VALID,91.9408,VALID,0,VALID,19.4754,VALID,81,VALID,1.04033,
2001-03-31, 02:19:00,VALID,916.57,VALID,0,VALID,91.7412,VALID,0,VALID,19.4788,VALID,78,VALID,1.2747,
2001-03-31, 02:20:00,VALID,916.556,VALID,0,VALID,91.5415,VALID,0,VALID,19.5052,VALID,93,VALID,1.24266,
2001-03-31, 02:21:00,VALID,916.539,VALID,0,VALID,91.5072,VALID,0,VALID,19.5154,VALID,86,VALID,1.35051,
2001-03-31, 02:22:00,VALID,916.538,VALID,0,VALID,91.5606,VALID,0,VALID,19.5119,VALID,87,VALID,1.1697,
2001-03-31, 02:23:00,VALID,916.542,VALID,0,VALID,91.5543,VALID,-0.0169808,VALID,19.5221,VALID,82,VALID,1.09674,
2001-03-31, 02:24:00,VALID,916.535,VALID,0,VALID,91.1829,VALID,-0.0169808,VALID,19.5211,VALID,76,VALID,1.15815,
2001-03-31, 02:25:00,VALID,916.528,VALID,0,VALID,90.9744,VALID,0,VALID,19.5631,VALID,71,VALID,1.14955,
2001-03-31, 02:26:00,VALID,916.515,VALID,0,VALID,90.8155,VALID,0.0169808,VALID,19.6085,VALID,77,VALID,0.984138,
2001-03-31, 02:27:00,VALID,916.522,VALID,0,VALID,90.9324,VALID,0,VALID,19.6212,VALID,75,VALID,1.07496,
2001-03-31, 02:28:00,VALID,916.501,VALID,0,VALID,90.7659,VALID,0,VALID,19.6307,VALID,83,VALID,1.46748,
2001-03-31, 02:29:00,VALID,916.49,VALID,0,VALID,90.715,VALID,0,VALID,19.6761,VALID,78,VALID,0.9884,
2001-03-31, 02:30:00,VALID,916.507,VALID,0,VALID,90.6463,VALID,0.0169808,VALID,19.6826,VALID,70,VALID,1.41254,
2001-03-31, 02:31:00,VALID,916.502,VALID,0,VALID,90.4848,VALID,0.0339617,VALID,19.7022,VALID,85,VALID,1.29058,
2001-03-31, 02:32:00,VALID,916.53,VALID,0,VALID,90.1237,VALID,0,VALID,19.7087,VALID,80,VALID,1.72978,
2001-03-31, 02:33:00,VALID,916.53,VALID,0,VALID,90.1428,VALID,-0.0169808,VALID,19.7216,VALID,77,VALID,1.55448,
2001-03-31, 02:34:00,VALID,916.529,VALID,0,VALID,90.4556,VALID,0,VALID,19.7047,VALID,74,VALID,1.30804,
2001-03-31, 02:35:00,VALID,916.536,VALID,0,VALID,90.57,VALID,0,VALID,19.6928,VALID,78,VALID,1.25284,
2001-03-31, 02:36:00,VALID,916.526,VALID,0,VALID,90.6845,VALID,-0.0169808,VALID,19.6729,VALID,70,VALID,1.10853,
2001-03-31, 02:37:00,VALID,916.516,VALID,0,VALID,90.715,VALID,0.0169808,VALID,19.6664,VALID,84,VALID,1.269,
2001-03-31, 02:38:00,VALID,916.521,VALID,0,VALID,90.4708,VALID,-0.0169808,VALID,19.6794,VALID,69,VALID,1.30066,
2001-03-31, 02:39:00,VALID,916.52,VALID,0,VALID,90.6629,VALID,0,VALID,19.7117,VALID,86,VALID,0.520616,
2001-03-31, 02:40:00,VALID,916.533,VALID,0,VALID,90.7837,VALID,0,VALID,19.6796,VALID,24,VALID,0.361328,
2001-03-31, 02:41:00,VALID,916.522,VALID,0,VALID,91.0062,VALID,0,VALID,19.6664,VALID,13,VALID,0.0939798,
2001-03-31, 02:42:00,VALID,916.516,VALID,0,VALID,91.3076,VALID,0.0169808,VALID,19.6567,VALID,84,VALID,0.66913,
2001-03-31, 02:43:00,VALID,916.514,VALID,0,VALID,91.1512,VALID,0.0169808,VALID,19.6565,VALID,67,VALID,1.12902,
2001-03-31, 02:44:00,VALID,916.515,VALID,0,VALID,90.9858,VALID,0,VALID,19.6307,VALID,81,VALID,1.04545,
2001-03-31, 02:45:00,VALID,916.528,VALID,0,VALID,90.9515,VALID,0.0169808,VALID,19.6443,VALID,74,VALID,0.799831,
2001-03-31, 02:46:00,VALID,916.518,VALID,0,VALID,91.1448,VALID,0.0169808,VALID,19.6336,VALID,50,VALID,0.129012,
2001-03-31, 02:47:00,VALID,916.508,VALID,0,VALID,91.4424,VALID,0,VALID,19.647,VALID,61,VALID,0.130919,
2001-03-31, 02:48:00,VALID,916.492,VALID,0,VALID,91.8823,VALID,0,VALID,19.6505,VALID,85,VALID,0.618056,
2001-03-31, 02:49:00,VALID,916.466,VALID,0,VALID,91.8137,VALID,-0.0169808,VALID,19.5956,VALID,43,VALID,0.267361,
2001-03-31, 02:50:00,VALID,916.446,VALID,0,VALID,91.9612,VALID,-0.0169808,VALID,19.5534,VALID,89,VALID,0.681985,
2001-03-31, 02:51:00,VALID,916.414,VALID,0,VALID,91.5797,VALID,0,VALID,19.5345,VALID,67,VALID,0.888302,
2001-03-31, 02:52:00,VALID,916.388,VALID,0,VALID,91.4767,VALID,0,VALID,19.5668,VALID,90,VALID,0.995982,
2001-03-31, 02:53:00,VALID,916.378,VALID,0,VALID,91.2694,VALID,0,VALID,19.5693,VALID,81,VALID,1.27865,
2001-03-31, 02:54:00,VALID,916.354,VALID,0,VALID,91.0494,VALID,0.0339617,VALID,19.647,VALID,91,VALID,1.08826,
2001-03-31, 02:55:00,VALID,916.347,VALID,0,VALID,90.9007,VALID,0,VALID,19.6987,VALID,94,VALID,0.730997,
2001-03-31, 02:56:00,VALID,916.345,VALID,0,VALID,91.01,VALID,0,VALID,19.7087,VALID,85,VALID,0.659564,
2001-03-31, 02:57:00,VALID,916.349,VALID,0,VALID,91.2694,VALID,0.0509425,VALID,19.6567,VALID,71,VALID,0.342882,
2001-03-31, 02:58:00,VALID,916.349,VALID,0,VALID,91.4538,VALID,0,VALID,19.6408,VALID,76,VALID,0.863498,
2001-03-31, 02:59:00,VALID,916.348,VALID,0,VALID,91.2999,VALID,0,VALID,19.6403,VALID,82,VALID,1.25483,
2001-03-31, 03:00:00,VALID,916.352,VALID,0,VALID,91.1766,VALID,0,VALID,19.6731,VALID,84,VALID,1.11486,
2001-03-31, 03:01:00,VALID,916.36,VALID,0,VALID,91.272,VALID,0,VALID,19.6538,VALID,91,VALID,1.09844,
2001-03-31, 03:02:00,VALID,916.384,VALID,0,VALID,91.3889,VALID,0.0169808,VALID,19.647,VALID,80,VALID,1.40507,
2001-03-31, 03:03:00,VALID,916.373,VALID,0,VALID,91.4805,VALID,0,VALID,19.6634,VALID,87,VALID,1.30976,
2001-03-31, 03:04:00,VALID,916.378,VALID,0,VALID,91.5555,VALID,0,VALID,19.6632,VALID,90,VALID,1.19869,
2001-03-31, 03:05:00,VALID,916.383,VALID,0,VALID,91.6344,VALID,0,VALID,19.6311,VALID,82,VALID,1.11056,
2001-03-31, 03:06:00,VALID,916.386,VALID,0,VALID,91.6878,VALID,0,VALID,19.6336,VALID,86,VALID,0.741536,
2001-03-31, 03:07:00,VALID,916.373,VALID,0,VALID,91.6827,VALID,-0.0339617,VALID,19.6316,VALID,91,VALID,1.15842,
2001-03-31, 03:08:00,VALID,916.346,VALID,0,VALID,91.9535,VALID,-0.0339617,VALID,19.6483,VALID,90,VALID,1.62569,
2001-03-31, 03:09:00,VALID,916.329,VALID,0,VALID,91.6306,VALID,-0.0169808,VALID,19.6905,VALID,107,VALID,1.38302,
2001-03-31, 03:10:00,VALID,916.308,VALID,0,VALID,91.5733,VALID,-0.0339617,VALID,19.6468,VALID,107,VALID,1.39509,
2001-03-31, 03:11:00,VALID,916.293,VALID,0,VALID,91.7196,VALID,-0.0509425,VALID,19.6485,VALID,94,VALID,0.886837,
2001-03-31, 03:12:00,VALID,916.298,VALID,0,VALID,92.0247,VALID,-0.0169808,VALID,19.6095,VALID,85,VALID,0.679054,
2001-03-31, 03:13:00,VALID,916.31,VALID,0,VALID,92.0769,VALID,-0.0509425,VALID,19.5834,VALID,87,VALID,1.1875,
2001-03-31, 03:14:00,VALID,916.314,VALID,0,VALID,92.0108,VALID,-0.0169808,VALID,19.5864,VALID,95,VALID,1.17637,
2001-03-31, 03:15:00,VALID,916.314,VALID,0,VALID,92.012,VALID,-0.0169808,VALID,19.6095,VALID,95,VALID,1.01541,
2001-03-31, 03:16:00,VALID,916.32,VALID,0,VALID,92.0057,VALID,-0.0169808,VALID,19.616,VALID,96,VALID,0.717231,
2001-03-31, 03:17:00,VALID,916.326,VALID,0,VALID,92.0731,VALID,-0.0169808,VALID,19.606,VALID,96,VALID,0.570313,
2001-03-31, 03:18:00,VALID,916.334,VALID,0,VALID,92.2638,VALID,0,VALID,19.5705,VALID,95,VALID,0.617399,
2001-03-31, 03:19:00,VALID,916.339,VALID,0,VALID,92.5461,VALID,-0.0169808,VALID,19.5221,VALID,96,VALID,0.850893,
2001-03-31, 03:20:00,VALID,916.322,VALID,0,VALID,92.7267,VALID,-0.0339617,VALID,19.4992,VALID,91,VALID,0.827178,
2001-03-31, 03:21:00,VALID,916.312,VALID,0,VALID,92.817,VALID,-0.0169808,VALID,19.4927,VALID,91,VALID,0.84565,
2001-03-31, 03:22:00,VALID,916.288,VALID,0,VALID,92.8042,VALID,-0.0339617,VALID,19.4992,VALID,87,VALID,0.740287,
2001-03-31, 03:23:00,VALID,916.297,VALID,0,VALID,92.8131,VALID,0,VALID,19.4962,VALID,85,VALID,0.737453,
2001-03-31, 03:24:00,VALID,916.27,VALID,0,VALID,92.836,VALID,0,VALID,19.4997,VALID,87,VALID,0.525608,
2001-03-31, 03:25:00,VALID,916.26,VALID,0,VALID,92.9416,VALID,0,VALID,19.4701,VALID,94,VALID,0.610026,
2001-03-31, 03:26:00,VALID,916.252,VALID,0,VALID,92.9683,VALID,0,VALID,19.4639,VALID,100,VALID,0.808364,
2001-03-31, 03:27:00,VALID,916.224,VALID,0,VALID,93.1031,VALID,-0.0509425,VALID,19.4537,VALID,98,VALID,0.918919,
2001-03-31, 03:28:00,VALID,916.236,VALID,0,VALID,93.1565,VALID,0,VALID,19.4868,VALID,84,VALID,0.774777,
2001-03-31, 03:29:00,VALID,916.221,VALID,0,VALID,93.1272,VALID,-0.0339617,VALID,19.4995,VALID,82,VALID,0.821023,
2001-03-31, 03:30:00,VALID,916.195,VALID,0,VALID,93.1349,VALID,-0.0169808,VALID,19.5027,VALID,87,VALID,0.664907,
2001-03-31, 03:31:00,VALID,916.191,VALID,0,VALID,93.1984,VALID,-0.0339617,VALID,19.4932,VALID,86,VALID,0.596495,
2001-03-31, 03:32:00,VALID,915.747,VALID,0,VALID,93.276,VALID,-0.0509425,VALID,19.4999,VALID,90,VALID,0.8009,
2001-03-31, 03:33:00,VALID,916.169,VALID,0,VALID,93.435,VALID,-0.0509425,VALID,19.49,VALID,101,VALID,0.930122,
2001-03-31, 03:34:00,VALID,916.162,VALID,0,VALID,93.6193,VALID,-0.0339617,VALID,19.4895,VALID,112,VALID,0.983941,